STARLINK-36048

Last updated on Wed Dec 31 2025 00:02:06 GMT+0000 (Coordinated Universal Time)

1 66603U 25270R 25364.60338241 .00067668 00000+0 16129-2 0 9997 2 66603 43.0008 89.4902 0001732 269.6972 90.3686 15.40697337 7008
UTC large
Height (km)
Speed (km/s)
/
Latitude / Longitude
Inclination (degrees)
Orbital Period (minutes)
Azimuth
Elevation
Range (km)
Doppler Factor

Next 0 passes for location: London (51.5072 / 0.1276)

Sorry there are no passes over London.